QPS-SAR-2 IZANAMI (47485 NORAD) Tracking and Keplerian Element Data

This shows tracking and keplerian element data for the satellite.

Feedback or suggestion? Click here.




ElementValue
Catalog47485
NameQPS-SAR-2 IZANAMI
Epoch Orbit1202
Epoch Day102.16394193
Epoch Year2021
RAAN164.5186
Inclination97.4981
Eccentricity0.0009416
Argument of Perigee343.3595
Mean Anonmoly101.066
Mean Motion15.12382452
Decay Rate1.372E-05
L11 47485U 21006CA 21102.16394193 .00001372 00000-0 82726-4 0 9991
L22 47485 97.4981 164.5186 0009416 343.3595 101.0660 15.12382452 12023

Live tracking and technical data element details for QPS-SAR-2 IZANAMI (NORAD 47485). QPS-SAR-2 IZANAMI can be tracked NOW for your location showing map with azimuth and elevation plus other details from your city location.

Track the satellite on the map from your city or location and see movement details for azimuth, elevation, latitude, longitude, range, height, and movement on the map or in text.







IsCatalogInMostPopularTable: catalog: 47485, numindb: 15
Update: records affected: 1



GetName: 47485 QPS-SAR-2 IZANAMI

Hit Count: updated at: Tue, 13 Apr 2021 04:40:00 GMT